period_start,C,m1,H,J0,J1,J2,J3,J4,J5,JA,JB,JC,JD,JJ,JK,JN,#
2014-09-05 00:04:30,0.01,0.62,0.00,22.89,27.34,29.74,9.41,37.77,1000.54,2037.99,3218.34,3141.00,3388.00,499.81,488.94,20.51,0000 0000 0000 0000 000000
2014-09-05 00:09:31,0.00,0.62,0.00,22.90,27.32,29.70,9.35,37.60,1000.56,2037.99,3218.01,3140.92,3387.97,499.57,488.89,20.55,0000 0000 0000 0000 000000
2014-09-05 00:14:32,0.03,0.62,0.00,22.91,27.32,29.73,9.38,37.74,1000.54,2037.99,3217.98,3140.46,3387.54,500.08,489.23,20.59,0000 0000 0000 0000 000000
2014-09-05 00:19:33,0.01,0.62,0.00,22.91,27.32,29.72,9.38,37.63,1000.53,2037.99,3217.82,3140.06,3387.06,499.92,489.01,20.63,0000 0000 0000 0000 000000
2014-09-05 00:24:34,0.01,0.62,0.00,22.91,27.31,29.70,9.41,37.73,1000.56,2037.99,3217.29,3140.01,3387.00,499.75,488.77,20.67,0000 0000 0000 0000 000000
2014-09-05 00:29:35,0.00,0.62,0.00,22.90,27.30,29.68,9.43,37.73,1000.54,2037.99,3217.02,3139.99,3386.96,499.96,488.96,20.72,0000 0000 0000 0000 000000
2014-09-05 00:34:36,0.01,0.62,0.00,22.89,27.30,29.69,9.49,37.75,1000.59,2037.99,3216.99,3139.89,3386.42,500.13,489.08,20.76,0000 0000 0000 0000 000000
2014-09-05 00:39:37,0.04,0.62,0.00,22.89,27.30,29.70,9.53,37.96,1000.59,2037.99,3216.66,3139.23,3386.03,499.84,488.82,20.80,0000 0000 0000 0000 000000
2014-09-05 00:44:39,0.01,0.62,0.00,22.92,27.30,29.68,9.30,37.74,1000.57,2037.99,3216.04,3139.01,3385.99,499.61,488.66,20.84,0000 0000 0000 0000 000000
2014-09-05 00:49:40,0.01,0.62,0.00,22.93,27.30,29.70,9.52,37.91,1000.54,2037.99,3215.97,3139.00,3385.69,500.11,488.97,20.88,0000 0000 0000 0000 000000
2014-09-05 00:54:41,0.03,0.62,0.00,22.96,27.30,29.70,9.43,37.83,1000.52,2037.99,3215.46,3138.85,3385.06,499.58,488.74,20.93,0000 0000 0000 0000 000000
2014-09-05 00:59:42,0.02,0.63,0.00,22.97,27.30,29.68,9.42,37.88,1000.51,2038.00,3215.02,3138.15,3384.99,499.84,488.88,20.97,0000 0000 0000 0000 000000
2014-09-05 01:04:43,0.00,0.63,0.00,22.96,27.30,29.68,9.32,37.72,1000.51,2038.00,3214.99,3138.01,3384.92,499.55,488.45,21.01,0000 0000 0000 0000 000000
2014-09-05 01:09:44,0.02,0.63,0.00,22.98,27.30,29.70,9.42,37.86,1000.51,2038.00,3214.63,3137.99,3384.27,500.21,488.90,21.05,0000 0000 0000 0000 000000
2014-09-05 01:14:46,0.02,0.63,0.00,22.97,27.30,29.68,9.42,37.68,1000.50,2038.00,3214.02,3137.71,3384.01,500.29,489.09,21.09,0000 0000 0000 0000 000000
2014-09-05 01:19:47,0.02,0.63,0.00,22.96,27.30,29.71,9.47,37.92,1000.50,2038.01,3213.86,3137.08,3383.89,500.22,488.91,21.13,0000 0000 0000 0000 000000
2014-09-05 01:24:48,0.03,0.63,0.00,22.96,27.30,29.70,9.40,37.85,1000.50,2038.00,3213.16,3137.00,3383.12,499.96,488.92,21.18,0000 0000 0000 0000 000000
2014-09-05 01:29:50,0.00,0.63,0.00,22.99,27.30,29.71,9.45,37.94,1000.50,2038.00,3213.00,3136.86,3382.99,499.95,488.81,21.22,0000 0000 0000 0000 000000
2014-09-05 01:34:51,0.05,0.63,0.00,23.01,27.30,29.70,9.38,37.98,1000.50,2038.00,3212.54,3136.15,3382.45,499.80,488.39,21.26,0000 0000 0000 0000 000000
2014-09-05 01:39:52,0.01,0.63,0.00,23.03,27.30,29.70,9.41,38.07,1000.50,2038.00,3212.01,3135.99,3382.00,500.15,488.87,21.30,0000 0000 0000 0000 000000
2014-09-05 01:44:52,0.03,0.63,0.00,23.05,27.30,29.70,9.43,37.73,1000.50,2038.00,3211.75,3135.74,3381.93,500.06,489.00,21.34,0000 0000 0000 0000 000000
2014-09-05 01:49:53,0.04,0.64,0.00,23.05,27.31,29.75,9.41,37.70,1000.50,2038.00,3211.05,3135.09,3381.28,499.93,488.62,21.39,0000 0000 0000 0000 000000
2014-09-05 01:54:55,0.00,0.64,0.00,23.06,27.32,29.73,9.39,37.87,1000.50,2038.00,3210.83,3135.00,3380.98,499.67,488.43,21.43,0000 0000 0000 0000 000000
2014-09-05 01:59:56,0.03,0.64,0.00,23.08,27.32,29.71,9.39,37.85,1000.49,2038.01,3210.12,3134.87,3380.54,500.29,489.03,21.47,0000 0000 0000 0000 000000
2014-09-05 02:04:57,0.04,0.64,0.00,23.12,27.32,29.73,9.51,37.76,1000.50,2038.00,3209.54,3134.07,3379.98,500.22,488.75,21.51,0000 0000 0000 0000 000000
2014-09-05 02:09:58,0.03,0.64,0.00,23.15,27.33,29.72,9.35,37.84,1000.50,2038.00,3209.02,3133.82,3379.26,499.98,488.56,21.55,0000 0000 0000 0000 000000
2014-09-05 02:15:00,0.05,0.64,0.00,23.18,27.35,29.72,9.39,37.68,1000.52,2038.00,3208.46,3133.05,3378.65,500.01,488.54,21.60,0000 0000 0000 0000 000000
2014-09-05 02:20:01,0.05,0.64,0.00,23.19,27.35,29.73,9.38,37.83,1000.51,2038.00,3207.71,3132.38,3377.87,499.86,488.45,21.64,0000 0000 0000 0000 000000
2014-09-05 02:25:02,0.03,0.65,0.00,23.22,27.36,29.74,9.36,37.98,1000.51,2037.99,3207.00,3131.92,3377.05,499.77,488.18,21.68,0000 0000 0000 0000 000000
2014-09-05 02:30:03,0.06,0.65,0.00,23.22,27.37,29.75,9.40,37.96,1000.50,2037.99,3206.12,3131.08,3376.17,500.41,488.98,21.72,0000 0000 0000 0000 000000
2014-09-05 02:35:04,0.06,0.65,0.00,23.23,27.37,29.76,9.40,37.83,1000.50,2037.99,3205.23,3130.36,3375.39,500.28,488.38,21.76,0000 0000 0000 0000 000000
2014-09-05 02:40:05,0.06,0.65,0.00,23.23,27.39,29.77,9.40,37.76,1000.50,2037.97,3204.40,3129.51,3374.36,500.14,488.45,21.81,0000 0000 0000 0000 000000
2014-09-05 02:45:06,0.07,0.66,0.00,23.26,27.40,29.80,9.36,37.73,1000.50,2037.97,3203.25,3128.52,3373.25,499.85,488.35,21.85,0000 0000 0000 0000 000000
2014-09-05 02:50:07,0.07,0.66,0.00,23.27,27.41,29.81,9.37,37.66,1000.50,2037.95,3202.13,3127.44,3371.97,499.84,488.40,21.89,0000 0000 0000 0000 000000
2014-09-05 02:55:09,0.07,0.66,0.00,23.30,27.42,29.82,9.40,37.75,1000.50,2037.93,3201.00,3126.49,3370.86,499.86,488.13,21.93,0000 0000 0000 0000 000000
2014-09-05 03:00:10,0.05,0.67,0.00,23.31,27.43,29.82,9.43,37.83,1000.51,2037.88,3200.08,3125.56,3369.79,500.03,488.30,21.97,0000 0000 0000 0000 000000
2014-09-05 03:05:11,0.06,0.67,0.00,23.34,27.45,29.82,9.41,37.79,1000.50,2037.78,3199.21,3124.74,3368.80,500.14,488.32,22.01,0000 0000 0000 0000 000000
2014-09-05 03:10:12,0.02,0.67,0.00,23.39,27.46,29.84,9.35,37.79,1000.50,2037.54,3198.15,3123.76,3367.66,499.82,488.12,22.06,0000 0000 0000 0000 000000
2014-09-05 03:15:13,0.04,0.67,0.00,23.39,27.47,29.84,9.46,37.84,1000.51,2037.21,3197.14,3122.85,3366.58,500.47,488.64,22.10,0000 0000 0000 0000 000000
2014-09-05 03:20:14,0.06,0.67,0.00,23.39,27.49,29.86,9.35,37.68,1000.50,2037.12,3196.02,3121.83,3365.41,500.03,488.19,22.14,0000 0000 0000 0000 000000
2014-09-05 03:25:16,0.05,0.68,0.00,23.40,27.50,29.88,9.37,37.74,1000.50,2037.01,3195.09,3120.93,3364.31,499.80,488.00,22.18,0000 0000 0000 0000 000000
2014-09-05 03:30:17,0.06,0.68,0.00,23.44,27.52,29.90,9.36,37.84,1000.50,2037.02,3194.17,3120.10,3363.40,499.74,487.72,22.22,0000 0000 0000 0000 000000
2014-09-05 03:35:18,0.06,0.68,0.00,23.46,27.53,29.92,9.34,37.83,1000.50,2037.00,3193.16,3119.19,3362.32,499.64,487.85,22.27,0000 0000 0000 0000 000000
2014-09-05 03:40:19,0.07,0.69,0.00,23.48,27.55,29.92,9.25,37.82,1000.50,2037.00,3192.16,3118.29,3361.34,499.54,487.61,22.31,0000 0000 0000 0000 000000
2014-09-05 03:45:20,0.06,0.69,0.00,23.53,27.57,29.93,9.33,37.88,1000.50,2037.00,3191.21,3117.57,3360.40,499.58,487.64,22.35,0000 0000 0000 0000 000000
2014-09-05 03:50:22,0.05,0.69,0.00,23.54,27.58,29.94,9.33,37.70,1000.50,2037.00,3190.30,3116.84,3359.55,499.97,487.88,22.39,0000 0000 0000 0000 000000
2014-09-05 03:55:23,0.05,0.69,0.00,23.53,27.60,29.96,9.35,37.73,1000.50,2037.00,3189.54,3116.02,3358.67,499.56,487.53,22.43,0000 0000 0000 0000 000000
2014-09-05 04:00:24,0.06,0.69,0.00,23.55,27.61,29.97,9.35,38.24,1000.50,2036.99,3188.62,3115.23,3357.79,499.50,487.40,22.48,0000 0000 0000 0000 000000
2014-09-05 04:05:25,0.06,0.70,0.00,23.55,27.63,30.00,9.45,37.89,1000.50,2036.98,3187.72,3114.51,3356.87,500.22,488.12,22.52,0000 0000 0000 0000 000000
2014-09-05 04:10:26,0.03,0.70,0.00,23.56,27.65,30.01,9.42,37.79,1000.50,2036.96,3186.92,3113.86,3356.03,500.04,488.02,22.56,0000 0000 0000 0000 000000
2014-09-05 04:15:27,0.05,0.70,0.00,23.57,27.66,30.03,9.44,37.80,1000.50,2036.94,3186.03,3113.05,3355.16,499.91,487.93,22.60,0000 0000 0000 0000 000000
2014-09-05 04:20:28,0.05,0.70,0.00,23.60,27.67,30.05,9.44,37.87,1000.50,2036.84,3185.07,3112.25,3354.24,500.09,487.96,22.64,0000 0000 0000 0000 000000
2014-09-05 04:25:30,0.02,0.71,0.00,23.61,27.70,30.07,9.38,37.94,1000.51,2036.44,3184.00,3111.10,3352.99,500.02,487.66,22.69,0000 0000 0000 0000 000000
2014-09-05 04:30:31,0.04,0.71,0.00,23.61,27.71,30.09,9.40,37.98,1000.51,2036.11,3183.02,3110.22,3351.99,499.85,487.63,22.73,0000 0000 0000 0000 000000
2014-09-05 04:35:32,0.06,0.71,0.00,23.64,27.72,30.12,9.38,37.97,1000.52,2036.05,3182.07,3109.45,3351.03,499.89,487.67,22.77,0000 0000 0000 0000 000000
2014-09-05 04:40:33,0.05,0.71,0.00,23.64,27.75,30.13,9.41,37.88,1000.54,2036.02,3181.06,3108.63,3350.03,500.13,487.80,22.81,0000 0000 0000 0000 000000
2014-09-05 04:45:34,0.05,0.71,0.00,23.65,27.75,30.14,9.43,37.82,1000.63,2036.02,3180.13,3107.87,3349.07,500.19,487.90,22.85,0000 0000 0000 0000 000000
2014-09-05 04:50:36,0.06,0.72,0.00,23.68,27.77,30.14,9.32,37.89,1000.91,2036.01,3179.29,3107.03,3348.19,499.98,487.87,22.89,0000 0000 0000 0000 000000
2014-09-05 04:55:37,0.07,0.72,0.00,23.69,27.79,30.15,9.38,37.88,1000.98,2036.00,3178.32,3106.13,3347.21,500.01,487.97,22.94,0000 0000 0000 0000 000000
2014-09-05 05:00:39,0.06,0.72,0.00,23.71,27.80,30.17,9.21,37.78,1000.99,2036.00,3177.47,3105.41,3346.36,499.30,487.19,22.98,0000 0000 0000 0000 000000
2014-09-05 05:05:40,0.05,0.72,0.00,23.74,27.82,30.19,9.34,37.77,1000.99,2036.00,3176.63,3104.71,3345.51,500.03,488.00,23.02,0000 0000 0000 0000 000000
2014-09-05 05:10:41,0.04,0.73,0.00,23.75,27.83,30.21,9.38,37.78,1000.99,2035.99,3175.79,3103.93,3344.63,499.83,487.76,23.06,0000 0000 0000 0000 000000
2014-09-05 05:15:42,0.05,0.73,0.00,23.78,27.85,30.22,9.34,37.81,1001.00,2035.99,3174.94,3103.12,3343.75,500.11,487.99,23.10,0000 0000 0000 0000 000000
2014-09-05 05:20:43,0.05,0.73,0.00,23.79,27.87,30.24,9.30,37.83,1001.03,2035.94,3174.07,3102.36,3342.93,499.70,487.48,23.15,0000 0000 0000 0000 000000
2014-09-05 05:25:44,0.02,0.73,0.00,23.81,27.88,30.25,9.44,38.02,1001.03,2035.87,3173.50,3101.97,3342.12,500.18,487.83,23.19,0000 0000 0000 0000 000000
2014-09-05 05:30:45,0.04,0.73,0.00,23.82,27.90,30.26,9.37,37.81,1001.05,2035.65,3172.85,3101.17,3341.52,500.14,487.73,23.23,0000 0000 0000 0000 000000
2014-09-05 05:35:46,0.01,0.73,0.00,23.83,27.91,30.28,9.30,37.58,1001.01,2035.50,3172.05,3100.92,3340.98,499.66,487.45,23.27,0000 0000 0000 0000 000000
2014-09-05 05:40:47,0.02,0.74,0.00,23.85,27.92,30.30,9.42,37.77,1001.00,2035.26,3171.40,3100.12,3340.18,499.98,487.58,23.31,0000 0000 0000 0000 000000
2014-09-05 05:45:48,0.05,0.74,0.00,23.82,27.94,30.31,9.39,37.74,1001.00,2035.10,3170.44,3099.44,3339.34,499.93,487.68,23.36,0000 0000 0000 0000 000000
2014-09-05 05:50:50,0.05,0.74,0.00,23.84,27.95,30.33,9.38,37.97,1000.99,2035.03,3169.64,3098.76,3338.43,499.80,487.57,23.40,0000 0000 0000 0000 000000
2014-09-05 05:55:51,0.05,0.74,0.00,23.89,27.97,30.34,9.39,37.68,1000.99,2035.01,3168.74,3097.94,3337.50,499.71,487.14,23.44,0000 0000 0000 0000 000000
2014-09-05 06:00:52,0.05,0.74,0.00,23.89,27.98,30.34,9.37,37.72,1000.99,2035.00,3167.92,3097.07,3336.65,499.93,487.45,23.48,0000 0000 0000 0000 000000
2014-09-05 06:05:53,0.07,0.75,0.00,23.89,28.00,30.36,9.31,37.67,1000.99,2035.00,3166.85,3096.34,3335.73,499.85,487.47,23.52,0000 0000 0000 0000 000000
2014-09-05 06:10:54,0.06,0.75,0.00,23.90,28.01,30.39,9.38,37.69,1000.99,2035.00,3165.91,3095.53,3334.74,500.07,487.66,23.57,0000 0000 0000 0000 000000
2014-09-05 06:15:55,0.03,0.75,0.00,23.90,28.02,30.39,9.38,37.62,1000.99,2035.00,3165.08,3094.90,3333.92,499.89,487.52,23.61,0000 0000 0000 0000 000000
2014-09-05 06:20:56,0.06,0.75,0.00,23.91,28.04,30.40,9.37,37.67,1000.99,2035.00,3164.25,3094.07,3333.05,500.01,487.60,23.65,0000 0000 0000 0000 000000
2014-09-05 06:25:58,0.06,0.76,0.00,23.91,28.05,30.43,9.31,37.90,1000.99,2035.00,3163.39,3093.26,3332.14,499.96,487.60,23.69,0000 0000 0000 0000 000000
2014-09-05 06:30:59,0.06,0.76,0.00,23.91,28.06,30.43,9.35,37.65,1001.00,2034.98,3162.48,3092.52,3331.15,499.90,487.45,23.73,0000 0000 0000 0000 000000
2014-09-05 06:36:00,0.06,0.76,0.00,23.94,28.07,30.43,9.41,37.76,1001.00,2034.94,3161.45,3091.64,3330.11,500.12,487.54,23.77,0000 0000 0000 0000 000000
2014-09-05 06:41:01,0.06,0.76,0.00,23.97,28.09,30.45,9.37,37.65,1001.00,2034.94,3160.44,3090.71,3329.13,500.06,487.24,23.82,0000 0000 0000 0000 000000
2014-09-05 06:46:03,0.05,0.77,0.00,23.98,28.10,30.47,9.43,37.82,1001.01,2034.87,3159.45,3089.80,3328.06,500.10,487.55,23.86,0000 0000 0000 0000 000000
2014-09-05 06:51:04,0.03,0.77,0.00,23.98,28.11,30.47,9.39,37.85,1001.03,2034.66,3158.34,3088.91,3327.02,499.96,487.43,23.90,0000 0000 0000 0000 000000
2014-09-05 06:56:05,0.03,0.77,0.00,24.00,28.12,30.50,9.39,37.69,1001.02,2034.31,3157.43,3088.04,3326.06,500.11,487.51,23.94,0000 0000 0000 0000 000000
2014-09-05 07:01:06,0.04,0.77,0.00,24.00,28.14,30.50,9.39,37.71,1001.05,2034.17,3156.44,3087.15,3325.09,500.10,487.62,23.98,0000 0000 0000 0000 000000
2014-09-05 07:06:07,0.06,0.78,0.00,24.00,28.15,30.52,9.42,37.90,1001.22,2034.06,3155.59,3086.38,3324.13,500.21,487.70,24.03,0000 0000 0000 0000 000000
2014-09-05 07:11:08,0.06,0.78,0.00,24.03,28.17,30.53,9.36,37.61,1001.35,2034.05,3154.62,3085.66,3323.17,499.88,487.43,24.07,0000 0000 0000 0000 000000
2014-09-05 07:16:10,0.05,0.78,0.00,24.02,28.17,30.54,9.47,37.58,1001.43,2034.02,3153.65,3084.90,3322.25,500.28,487.78,24.11,0000 0000 0000 0000 000000
2014-09-05 07:21:11,0.06,0.78,0.00,24.04,28.18,30.55,9.32,37.58,1001.46,2034.02,3152.79,3084.05,3321.30,500.09,487.77,24.15,0000 0000 0000 0000 000000
2014-09-05 07:26:12,0.07,0.79,0.00,24.04,28.20,30.57,9.40,37.64,1001.47,2034.00,3151.80,3083.08,3320.24,500.07,487.60,24.19,0000 0000 0000 0000 000000
2014-09-05 07:31:13,0.09,0.79,0.00,24.07,28.20,30.57,9.43,37.77,1001.48,2034.00,3150.45,3082.03,3318.94,500.00,487.61,24.24,0000 0000 0000 0000 000000
2014-09-05 07:36:14,0.07,0.79,0.00,24.08,28.22,30.57,9.39,37.62,1001.48,2034.00,3149.41,3081.04,3317.74,499.77,487.40,24.28,0000 0000 0000 0000 000000
2014-09-05 07:41:16,0.07,0.80,0.00,24.10,28.23,30.59,9.33,37.62,1001.48,2034.00,3148.39,3080.13,3316.68,499.74,487.32,24.32,0000 0000 0000 0000 000000
2014-09-05 07:46:17,0.06,0.80,0.00,24.12,28.25,30.60,9.38,37.65,1001.48,2034.00,3147.30,3079.29,3315.70,500.08,487.47,24.36,0000 0000 0000 0000 000000
2014-09-05 07:51:18,0.07,0.80,0.00,24.13,28.25,30.61,9.39,37.73,1001.48,2033.99,3146.27,3078.30,3314.53,499.85,487.30,24.40,0000 0000 0000 0000 000000
2014-09-05 07:56:19,0.07,0.81,0.00,24.15,28.27,30.63,9.35,37.73,1001.48,2033.98,3145.12,3077.33,3313.43,500.01,487.40,24.45,0000 0000 0000 0000 000000
2014-09-05 08:01:21,0.06,0.81,0.00,24.16,28.28,30.64,9.36,37.73,1001.48,2033.95,3144.13,3076.48,3312.36,500.35,487.57,24.49,0000 0000 0000 0000 000000
2014-09-05 08:06:22,0.06,0.81,0.00,24.20,28.30,30.64,9.42,37.78,1001.49,2033.94,3143.11,3075.67,3311.46,500.45,487.55,24.53,0000 0000 0000 0000 000000
2014-09-05 08:11:23,0.06,0.81,0.00,24.17,28.30,30.67,9.29,37.67,1001.50,2033.92,3142.01,3074.81,3310.36,499.31,486.74,24.57,0000 0000 0000 0000 000000
2014-09-05 08:16:24,0.06,0.82,0.00,24.18,28.32,30.68,9.43,37.83,1001.51,2033.76,3140.83,3073.76,3309.13,500.14,487.52,24.61,0000 0000 0000 0000 000000
2014-09-05 08:21:26,0.06,0.82,0.00,24.20,28.32,30.69,9.30,37.64,1001.66,2033.47,3139.56,3072.68,3307.87,499.67,487.09,24.66,0000 0000 0000 0000 000000
2014-09-05 08:26:27,0.06,0.82,0.00,24.20,28.34,30.70,9.36,37.70,1001.86,2033.37,3138.44,3071.74,3306.75,499.97,487.55,24.70,0000 0000 0000 0000 000000
2014-09-05 08:31:28,0.05,0.82,0.00,24.21,28.35,30.72,9.44,37.63,1001.91,2033.19,3137.22,3070.82,3305.55,500.32,487.86,24.74,0000 0000 0000 0000 000000
2014-09-05 08:36:30,0.05,0.83,0.00,24.23,28.35,30.72,9.38,37.79,1001.95,2033.08,3136.02,3069.88,3304.38,499.70,487.24,24.78,0000 0000 0000 0000 000000
2014-09-05 08:41:31,0.07,0.83,0.00,24.24,28.37,30.73,9.45,37.73,1001.97,2033.03,3134.94,3068.90,3303.35,500.12,487.70,24.82,0000 0000 0000 0000 000000
2014-09-05 08:46:32,0.06,0.83,0.00,24.22,28.37,30.74,9.35,37.68,1001.97,2033.03,3133.94,3068.01,3302.19,499.89,487.53,24.86,0000 0000 0000 0000 000000
2014-09-05 08:51:33,0.08,0.84,0.00,24.24,28.40,30.74,9.38,37.80,1001.97,2033.05,3132.81,3067.09,3301.20,500.15,487.59,24.91,0000 0000 0000 0000 000000
2014-09-05 08:56:34,0.07,0.84,0.00,24.23,28.40,30.76,9.38,37.74,1001.97,2033.01,3131.69,3066.19,3300.09,499.77,487.21,24.95,0000 0000 0000 0000 000000
2014-09-05 09:01:35,0.07,0.84,0.00,24.25,28.41,30.77,9.40,37.68,1001.98,2033.00,3130.61,3065.21,3299.01,500.34,487.78,24.99,0000 0000 0000 0000 000000
2014-09-05 09:06:36,0.07,0.84,0.00,24.25,28.42,30.77,9.31,37.62,1001.97,2033.00,3129.62,3064.37,3298.02,499.82,487.31,25.03,0000 0000 0000 0000 000000
2014-09-05 09:11:37,0.06,0.85,0.00,24.25,28.42,30.78,9.35,37.75,1001.97,2033.00,3128.56,3063.60,3296.95,499.88,487.28,25.07,0000 0000 0000 0000 000000
2014-09-05 09:16:38,0.07,0.85,0.00,24.28,28.45,30.80,9.35,37.69,1001.97,2033.00,3127.47,3062.64,3295.88,499.65,487.14,25.12,0000 0000 0000 0000 000000
2014-09-05 09:21:40,0.07,0.85,0.00,24.28,28.45,30.81,9.44,37.60,1001.97,2033.00,3126.26,3061.72,3294.79,500.09,487.34,25.16,0000 0000 0000 0000 000000
2014-09-05 09:26:41,0.08,0.86,0.00,24.27,28.46,30.83,9.25,37.61,1001.97,2032.99,3125.02,3060.63,3293.53,499.56,486.98,25.20,0000 0000 0000 0000 000000
2014-09-05 09:31:42,0.08,0.86,0.00,24.28,28.47,30.83,9.29,37.70,1001.96,2032.97,3123.71,3059.56,3292.34,500.04,487.60,25.24,0000 0000 0000 0000 000000
2014-09-05 09:36:43,0.07,0.86,0.00,24.30,28.47,30.86,9.37,37.74,1001.96,2032.93,3122.48,3058.53,3291.07,499.68,487.05,25.28,0000 0000 0000 0000 000000
2014-09-05 09:41:44,0.06,0.87,0.00,24.30,28.49,30.85,9.33,37.77,1001.97,2032.89,3121.28,3057.68,3289.92,499.72,487.11,25.33,0000 0000 0000 0000 000000
2014-09-05 09:46:45,0.05,0.87,0.00,24.29,28.50,30.86,9.33,37.71,1001.97,2032.91,3120.22,3056.83,3288.99,499.67,487.04,25.37,0000 0000 0000 0000 000000
2014-09-05 09:51:46,0.06,0.87,0.00,24.30,28.50,30.88,9.34,37.73,1001.97,2032.88,3119.17,3055.98,3288.00,499.88,487.40,25.41,0000 0000 0000 0000 000000
2014-09-05 09:56:47,0.06,0.88,0.00,24.30,28.51,30.88,9.46,37.86,1001.98,2032.78,3117.92,3055.08,3286.96,500.01,487.29,25.45,0000 0000 0000 0000 000000
2014-09-05 10:01:49,0.05,0.88,0.00,24.32,28.52,30.89,9.44,37.87,1001.97,2032.60,3116.76,3054.15,3285.90,500.18,487.59,25.49,0000 0000 0000 0000 000000
2014-09-05 10:06:50,0.06,0.88,0.00,24.29,28.52,30.89,9.48,37.91,1001.99,2032.29,3115.48,3053.20,3284.83,500.04,487.45,25.53,0000 0000 0000 0000 000000
2014-09-05 10:11:51,0.06,0.88,0.00,24.29,28.53,30.91,9.48,37.98,1001.99,2032.33,3114.47,3052.41,3283.82,499.74,487.25,25.58,0000 0000 0000 0000 000000
2014-09-05 10:16:52,0.07,0.88,0.00,24.31,28.54,30.92,9.46,38.24,1001.99,2032.19,3113.25,3051.44,3282.73,500.47,488.07,25.62,0000 0000 0000 0000 000000
2014-09-05 10:21:54,0.07,0.89,0.00,24.30,28.55,30.91,9.44,38.38,1001.99,2032.11,3112.00,3050.45,3281.56,499.78,487.20,25.66,0000 0000 0000 0000 000000
2014-09-05 10:26:55,0.07,0.89,0.00,24.31,28.55,30.91,9.33,38.15,1001.99,2032.04,3110.74,3049.45,3280.40,499.73,487.10,25.70,0000 0000 0000 0000 000000
2014-09-05 10:31:56,0.07,0.89,0.00,24.33,28.55,30.92,9.37,38.17,1001.99,2032.03,3109.65,3048.58,3279.27,500.16,487.48,25.74,0000 0000 0000 0000 000000
2014-09-05 10:36:58,0.07,0.90,0.00,24.34,28.56,30.92,9.35,38.52,1001.98,2032.01,3108.40,3047.55,3278.09,499.99,487.33,25.79,0000 0000 0000 0000 000000
2014-09-05 10:41:59,0.08,0.90,0.00,24.33,28.57,30.94,9.41,38.46,1001.98,2032.00,3107.27,3046.51,3276.82,499.93,487.25,25.83,0000 0000 0000 0000 000000
2014-09-05 10:47:00,0.08,0.90,0.00,24.33,28.57,30.93,9.34,38.29,1001.99,2032.00,3106.05,3045.51,3275.68,499.89,487.42,25.87,0000 0000 0000 0000 000000
2014-09-05 10:52:01,0.08,0.91,0.00,24.33,28.57,30.93,9.26,38.02,1002.00,2032.00,3104.81,3044.57,3274.58,499.44,486.98,25.91,0000 0000 0000 0000 000000
2014-09-05 10:57:03,0.08,0.91,0.00,24.34,28.58,30.94,9.36,38.22,1002.00,2032.00,3103.63,3043.61,3273.45,500.33,487.63,25.95,0000 0000 0000 0000 000000
2014-09-05 11:02:04,0.07,0.91,0.00,24.34,28.60,30.94,9.38,37.96,1002.01,2032.01,3102.51,3042.61,3272.31,499.73,487.33,26.00,0000 0000 0000 0000 000000
2014-09-05 11:07:05,0.06,0.92,0.00,24.35,28.60,30.96,9.44,37.92,1002.05,2032.00,3101.41,3041.73,3271.18,500.23,487.52,26.04,0000 0000 0000 0000 000000
2014-09-05 11:12:07,0.07,0.92,0.00,24.36,28.60,30.96,9.48,38.15,1002.05,2032.00,3100.26,3040.77,3270.05,500.27,487.33,26.08,0000 0000 0000 0000 000000
2014-09-05 11:17:08,0.07,0.92,0.00,24.37,28.60,30.97,9.47,38.08,1002.06,2032.00,3099.06,3039.86,3268.90,500.07,487.40,26.12,0000 0000 0000 0000 000000
2014-09-05 11:22:09,0.10,0.93,0.00,24.37,28.61,30.98,9.46,38.02,1002.09,2032.00,3097.81,3038.72,3267.66,500.28,487.55,26.16,0000 0000 0000 0000 000000
2014-09-05 11:27:11,0.07,0.93,0.00,24.39,28.62,30.97,9.30,37.73,1002.17,2032.00,3096.65,3037.72,3266.48,500.09,487.51,26.21,0000 0000 0000 0000 000000
2014-09-05 11:32:12,0.06,0.93,0.00,24.39,28.62,30.98,9.43,37.87,1002.23,2032.00,3095.58,3036.80,3265.40,500.18,487.46,26.25,0000 0000 0000 0000 000000
2014-09-05 11:37:13,0.06,0.94,0.00,24.38,28.62,30.99,9.32,37.80,1002.37,2032.00,3094.49,3035.94,3264.36,500.25,487.79,26.29,0000 0000 0000 0000 000000
2014-09-05 11:42:14,0.07,0.94,0.00,24.39,28.62,30.98,9.57,37.92,1002.34,2032.00,3093.40,3035.02,3263.31,500.60,487.96,26.33,0000 0000 0000 0000 000000
2014-09-05 11:47:15,0.07,0.94,0.00,24.41,28.64,31.00,9.39,37.73,1002.24,2032.00,3092.41,3034.10,3262.43,500.04,487.21,26.37,0000 0000 0000 0000 000000
2014-09-05 11:52:16,0.07,0.95,0.00,24.42,28.65,31.01,9.42,37.75,1002.21,2032.00,3091.41,3033.28,3261.47,500.12,487.52,26.42,0000 0000 0000 0000 000000
2014-09-05 11:57:17,0.07,0.95,0.00,24.41,28.65,31.01,9.36,37.83,1002.27,2032.00,3090.46,3032.46,3260.45,500.26,487.55,26.46,0000 0000 0000 0000 000000
2014-09-05 12:02:19,0.05,0.95,0.00,24.40,28.65,31.02,9.27,38.02,1002.39,2032.00,3089.48,3031.76,3259.54,499.57,486.91,26.50,0000 0000 0000 0000 000000
2014-09-05 12:07:20,0.06,0.95,0.00,24.42,28.67,31.03,9.46,38.12,1002.42,2031.99,3088.48,3030.91,3258.56,500.35,487.75,26.54,0000 0000 0000 0000 000000
2014-09-05 12:12:21,0.07,0.96,0.00,24.43,28.67,31.02,9.44,37.97,1002.43,2031.99,3087.42,3030.04,3257.51,500.32,487.69,26.58,0000 0000 0000 0000 000000
2014-09-05 12:17:22,0.07,0.96,0.00,24.42,28.67,31.02,9.36,37.71,1002.42,2031.99,3086.43,3029.18,3256.53,499.95,487.40,26.63,0000 0000 0000 0000 000000
2014-09-05 12:22:23,0.06,0.96,0.00,24.44,28.67,31.06,9.40,37.66,1002.40,2031.97,3085.58,3028.42,3255.67,500.04,487.45,26.67,0000 0000 0000 0000 000000
2014-09-05 12:27:24,0.03,0.96,0.00,24.45,28.70,31.05,9.44,37.81,1002.31,2031.97,3084.78,3027.81,3254.80,500.06,487.23,26.71,0000 0000 0000 0000 000000
2014-09-05 12:32:25,0.04,0.97,0.00,24.47,28.70,31.06,9.37,37.53,1002.18,2031.92,3083.95,3027.03,3253.97,499.75,487.03,26.75,0000 0000 0000 0000 000000
2014-09-05 12:37:26,0.05,0.97,0.00,24.46,28.70,31.05,9.33,37.54,1002.16,2031.84,3083.11,3026.36,3253.14,500.03,487.20,26.79,0000 0000 0000 0000 000000
2014-09-05 12:42:27,-0.00,0.97,0.00,24.47,28.70,31.06,9.35,37.58,1002.25,2031.72,3082.78,3026.01,3252.92,499.92,487.24,26.83,0000 0000 0000 0000 000000
2014-09-05 12:47:28,0.04,0.97,0.00,24.46,28.72,31.07,9.35,37.65,1002.29,2031.78,3082.06,3025.89,3252.18,499.61,486.93,26.88,0000 0000 0000 0000 000000
2014-09-05 12:52:30,0.03,0.97,0.00,24.46,28.72,31.09,9.39,37.67,1002.30,2031.82,3081.92,3025.19,3252.00,499.82,487.07,26.92,0000 0000 0000 0000 000000
2014-09-05 12:57:31,0.03,0.97,0.00,24.48,28.72,31.08,9.30,37.67,1002.23,2031.80,3081.13,3025.00,3251.46,499.70,487.02,26.96,0000 0000 0000 0000 000000
2014-09-05 13:02:32,0.01,0.97,0.00,24.49,28.73,31.11,9.43,37.76,1002.16,2031.71,3080.98,3024.82,3251.03,500.36,487.63,27.00,0000 0000 0000 0000 000000